| time (UTC) | temp F | wind direction | speed knots | gust knots | rain 1hr in | rain 24hr in | rain mn in | humidity % | barometer mb |
| 20260506051304 | 51 | 345 | 0.0 | 0.9 | 0.00 | 0.00 | 0.00 | 13 | 1006.9 |
| 20260506050804 | 51 | 0 | 0.0 | 0.9 | 0.00 | 0.00 | 0.00 | 15 | 1006.9 |
| 20260506050242 | 51 | 338 | 0.0 | 2.6 | 0.00 | 0.00 | 0.00 | 16 | 1007.0 |
| 20260506044651 | 51 | 338 | 0.0 | 2.6 | 0.00 | 0.00 | 0.00 | 21 | 1007.0 |
| 20260506044152 | 51 | 338 | 0.0 | 2.6 | 0.00 | 0.00 | 0.00 | 21 | 1007.0 |
| 20260506043634 | 51 | 72 | 0.0 | 1.7 | 0.00 | 0.00 | 0.00 | 22 | 1007.1 |
| 20260506043126 | 51 | 355 | 0.0 | 0.9 | 0.00 | 0.00 | 0.00 | 22 | 1007.0 |
| 20260506042620 | 51 | 355 | 0.0 | 1.7 | 0.00 | 0.00 | 0.00 | 23 | 1007.1 |
| 20260506042112 | 51 | 22 | 0.0 | 1.7 | 0.00 | 0.00 | 0.00 | 22 | 1007.0 |
| 20260506041604 | 51 | 333 | 0.0 | 0.9 | 0.00 | 0.00 | 0.00 | 21 | 1007.0 |
| 20260506041046 | 51 | 57 | 0.0 | 0.9 | 0.00 | 0.00 | 0.00 | 21 | 1007.1 |
| 20260506040547 | 51 | 89 | 0.0 | 0.9 | 0.00 | 0.00 | 0.00 | 22 | 1007.2 |
| 20260506040048 | 51 | 17 | 0.0 | 0.0 | 0.00 | 0.00 | 0.00 | 23 | 1007.1 |
| 20260506035532 | 51 | 161 | 0.0 | 0.9 | 0.00 | 0.00 | 0.00 | 23 | 1007.1 |
| 20260506035025 | 51 | 309 | 0.0 | 0.9 | 0.00 | 0.00 | 0.00 | 25 | 1007.1 |
| 20260506034741 | 51 | 59 | 0.0 | 0.0 | 0.00 | 0.00 | 0.00 | 25 | 1007.1 |
| 20260506034507 | 51 | 5 | 0.0 | 2.6 | 0.00 | 0.00 | 0.00 | 25 | 1007.1 |
| 20260506033500 | 51 | 311 | 0.0 | 2.6 | 0.00 | 0.00 | 0.00 | 26 | 1007.1 |
| 20260506032952 | 51 | 212 | 0.0 | 0.9 | 0.00 | 0.00 | 0.00 | 27 | 1007.2 |
| 20260506032700 | 51 | 331 | 0.0 | 0.9 | 0.00 | 0.00 | 0.00 | 26 | 1007.2 |
| 20260506032158 | 51 | 204 | 0.0 | 0.0 | 0.00 | 0.00 | 0.00 | 25 | 1007.2 |
| 20260506031411 | 51 | 223 | 0.0 | 0.0 | 0.00 | 0.00 | 0.00 | 26 | 1007.2 |
| 20260506031128 | 51 | 119 | 0.0 | 0.0 | 0.00 | 0.00 | 0.00 | 27 | 1007.2 |
| 20260506030411 | 51 | 153 | 0.0 | 1.7 | 0.00 | 0.00 | 0.00 | 27 | 1007.3 |
| 20260506030402 | 51 | 164 | 0.0 | 1.7 | 0.00 | 0.00 | 0.00 | 27 | 1007.4 |
| 20260506025340 | 51 | 355 | 0.0 | 2.6 | 0.00 | 0.00 | 0.00 | 27 | 1007.4 |
| 20260506024841 | 51 | 355 | 0.0 | 2.6 | 0.00 | 0.00 | 0.00 | 28 | 1007.4 |
| 20260506024336 | 51 | 329 | 0.0 | 1.7 | 0.00 | 0.00 | 0.00 | 29 | 1007.4 |
| 20260506023828 | 51 | 75 | 0.0 | 0.9 | 0.00 | 0.00 | 0.00 | 30 | 1007.4 |
| 20260506023319 | 51 | 336 | 0.0 | 0.0 | 0.00 | 0.00 | 0.00 | 30 | 1007.4 |
| 20260506022821 | 51 | 146 | 0.0 | 0.0 | 0.00 | 0.00 | 0.00 | 31 | 1007.4 |
| 20260506022306 | 51 | 5 | 0.0 | 0.9 | 0.00 | 0.00 | 0.00 | 32 | 1007.4 |
| 20260506021730 | 51 | 355 | 0.0 | 0.9 | 0.00 | 0.00 | 0.00 | 33 | 1007.4 |
| 20260506021224 | 51 | 343 | 0.0 | 0.0 | 0.00 | 0.00 | 0.00 | 34 | 1007.4 |
| 20260506021149 | 51 | 349 | 0.0 | 0.0 | 0.00 | 0.00 | 0.00 | 34 | 1007.4 |
| 20260506020145 | 51 | 355 | 0.0 | 0.9 | 0.00 | 0.00 | 0.00 | 32 | 1007.5 |
| 20260506015906 | 51 | 9 | 0.0 | 0.9 | 0.00 | 0.00 | 0.00 | 31 | 1007.5 |
| 20260506015120 | 51 | 313 | 0.0 | 0.9 | 0.00 | 0.00 | 0.00 | 30 | 1007.5 |
| 20260506014833 | 51 | 58 | 0.0 | 1.7 | 0.00 | 0.00 | 0.00 | 30 | 1007.5 |
| 20260506014108 | 51 | 290 | 0.0 | 5.2 | 0.00 | 0.00 | 0.00 | 30 | 1007.5 |
| 20260506013834 | 51 | 311 | 0.0 | 5.2 | 0.00 | 0.00 | 0.00 | 30 | 1007.5 |
| 20260506013108 | 51 | 261 | 0.0 | 3.5 | 0.00 | 0.00 | 0.00 | 29 | 1007.6 |
| 20260506012606 | 51 | 340 | 0.0 | 0.9 | 0.00 | 0.00 | 0.00 | 27 | 1007.6 |
| 20260506012042 | 51 | 316 | 0.0 | 0.9 | 0.00 | 0.00 | 0.00 | 26 | 1007.6 |
| 20260506011543 | 51 | 350 | 0.0 | 4.3 | 0.00 | 0.00 | 0.00 | 26 | 1007.6 |
| 20260506011035 | 51 | 40 | 0.0 | 4.3 | 0.00 | 0.00 | 0.00 | 27 | 1007.6 |
| 20260506010537 | 51 | 5 | 0.0 | 4.3 | 0.00 | 0.00 | 0.00 | 26 | 1007.7 |
| 20260506010028 | 51 | 12 | 0.0 | 4.3 | 0.00 | 0.00 | 0.00 | 27 | 1007.7 |
| 20260506005739 | 51 | 340 | 0.0 | 2.6 | 0.00 | 0.00 | 0.00 | 27 | 1007.8 |
| 20260506005026 | 50 | 104 | 0.0 | 1.7 | 0.00 | 0.00 | 0.00 | 27 | 1007.9 |
| 20260506004523 | 50 | 348 | 0.0 | 0.0 | 0.00 | 0.00 | 0.00 | 28 | 1008.0 |
| 20260506004242 | 50 | 355 | 0.0 | 0.0 | 0.00 | 0.00 | 0.00 | 28 | 1008.1 |
| 20260506003440 | 50 | 355 | 0.0 | 0.0 | 0.00 | 0.00 | 0.00 | 29 | 1008.0 |
| 20260506002938 | 50 | 328 | 0.0 | 0.9 | 0.00 | 0.00 | 0.00 | 29 | 1008.1 |
| 20260506002432 | 50 | 5 | 0.0 | 4.3 | 0.00 | 0.00 | 0.00 | 30 | 1008.2 |
| 20260506001915 | 50 | 328 | 0.0 | 4.3 | 0.00 | 0.00 | 0.00 | 30 | 1008.2 |
| 20260506001634 | 50 | 38 | 0.0 | 0.0 | 0.00 | 0.00 | 0.00 | 30 | 1008.2 |
| 20260506001140 | 50 | 43 | 0.0 | 0.0 | 0.00 | 0.00 | 0.00 | 30 | 1008.3 |
| 20260506000403 | 50 | 116 | 0.0 | 0.9 | 0.00 | 0.00 | 0.00 | 28 | 1008.3 |
| 20260505235903 | 50 | 45 | 0.0 | 0.9 | 0.00 | 0.00 | 0.00 | 26 | 1008.4 |
| 20260505235403 | 50 | 92 | 0.0 | 0.9 | 0.00 | 0.00 | 0.00 | 23 | 1008.4 |
| 20260505234855 | 50 | 11 | 0.0 | 2.6 | 0.00 | 0.00 | 0.00 | 23 | 1008.4 |
| 20260505234612 | 51 | 355 | 0.0 | 3.5 | 0.00 | 0.00 | 0.00 | 23 | 1008.3 |
| 20260505234117 | 51 | 218 | 0.0 | 3.5 | 0.00 | 0.00 | 0.00 | 22 | 1008.4 |
| 20260505233353 | 51 | 5 | 0.0 | 2.6 | 0.00 | 0.00 | 0.00 | 22 | 1008.5 |
| 20260505232852 | 51 | 18 | 0.0 | 1.7 | 0.00 | 0.00 | 0.00 | 23 | 1008.6 |
| 20260505232343 | 51 | 14 | 0.0 | 0.9 | 0.00 | 0.00 | 0.00 | 26 | 1008.6 |
| 20260505231844 | 51 | 346 | 0.0 | 0.0 | 0.00 | 0.00 | 0.00 | 27 | 1008.7 |
| 20260505231335 | 51 | 9 | 0.0 | 7.0 | 0.00 | 0.00 | 0.00 | 30 | 1008.7 |
| 20260505230836 | 51 | 336 | 0.0 | 7.0 | 0.00 | 0.00 | 0.00 | 32 | 1008.7 |
| 20260505230320 | 51 | 348 | 0.0 | 1.7 | 0.00 | 0.00 | 0.00 | 35 | 1008.7 |
| 20260505225821 | 51 | 9 | 0.0 | 0.9 | 0.00 | 0.00 | 0.00 | 36 | 1008.7 |
| 20260505225312 | 51 | 319 | 0.0 | 1.7 | 0.00 | 0.00 | 0.00 | 36 | 1008.7 |
| 20260505224812 | 51 | 338 | 0.0 | 1.7 | 0.00 | 0.00 | 0.00 | 35 | 1008.7 |
| 20260505224259 | 51 | 321 | 0.0 | 1.7 | 0.00 | 0.00 | 0.00 | 35 | 1008.7 |
| 20260505224021 | 51 | 13 | 0.0 | 1.7 | 0.00 | 0.00 | 0.00 | 36 | 1008.7 |
| 20260505223246 | 51 | 322 | 0.0 | 1.7 | 0.00 | 0.00 | 0.00 | 37 | 1008.7 |
| 20260505222749 | 51 | 284 | 0.0 | 0.9 | 0.00 | 0.00 | 0.00 | 38 | 1008.8 |
| 20260505222248 | 50 | 355 | 0.0 | 0.9 | 0.00 | 0.00 | 0.00 | 39 | 1008.9 |
| 20260505221725 | 50 | 76 | 0.0 | 0.9 | 0.00 | 0.00 | 0.00 | 41 | 1008.9 |
| 20260505221219 | 50 | 13 | 0.0 | 0.0 | 0.00 | 0.00 | 0.00 | 42 | 1008.9 |
| 20260505220940 | 50 | 0 | 0.0 | 0.0 | 0.00 | 0.00 | 0.00 | 43 | 1009.1 |
| 20260505220436 | 50 | 98 | 0.0 | 0.9 | 0.00 | 0.00 | 0.00 | 44 | 1009.0 |
| 20260505215933 | 50 | 13 | 0.0 | 2.6 | 0.00 | 0.00 | 0.00 | 46 | 1009.0 |
| 20260505215217 | 50 | 22 | 0.0 | 2.6 | 0.00 | 0.00 | 0.00 | 48 | 1009.0 |
| 20260505214659 | 51 | 339 | 0.0 | 1.7 | 0.00 | 0.00 | 0.00 | 49 | 1009.1 |
| 20260505214151 | 51 | 5 | 0.0 | 1.7 | 0.00 | 0.00 | 0.00 | 50 | 1009.2 |
| 20260505213906 | 51 | 239 | 0.0 | 0.0 | 0.00 | 0.00 | 0.00 | 51 | 1009.2 |
| 20260505213413 | 51 | 269 | 0.0 | 0.9 | 0.00 | 0.00 | 0.00 | 52 | 1009.2 |
| 20260505212639 | 51 | 14 | 0.0 | 0.0 | 0.00 | 0.00 | 0.00 | 53 | 1009.2 |
| 20260505212134 | 51 | 117 | 0.0 | 0.9 | 0.00 | 0.00 | 0.00 | 53 | 1009.2 |
| 20260505211636 | 51 | 31 | 0.0 | 0.9 | 0.00 | 0.00 | 0.00 | 54 | 1009.2 |
| 20260505211136 | 51 | 21 | 0.0 | 1.7 | 0.00 | 0.00 | 0.00 | 56 | 1009.2 |
| 20260505210637 | 50 | 5 | 0.0 | 1.7 | 0.00 | 0.00 | 0.00 | 57 | 1009.2 |
| 20260505210112 | 50 | 228 | 0.0 | 0.9 | 0.00 | 0.00 | 0.00 | 56 | 1009.2 |
| 20260505205611 | 50 | 347 | 0.0 | 0.9 | 0.00 | 0.00 | 0.00 | 55 | 1009.3 |
| 20260505205114 | 50 | 5 | 0.0 | 0.9 | 0.00 | 0.00 | 0.00 | 56 | 1009.4 |
| 20260505204559 | 50 | 32 | 0.0 | 0.9 | 0.00 | 0.00 | 0.00 | 56 | 1009.4 |
| 20260505204053 | 50 | 9 | 0.0 | 0.9 | 0.00 | 0.00 | 0.00 | 56 | 1009.3 |
| 20260505203550 | 50 | 169 | 0.0 | 0.9 | 0.00 | 0.00 | 0.00 | 57 | 1009.4 |
| 20260505203032 | 50 | 288 | 0.0 | 1.7 | 0.00 | 0.00 | 0.00 | 58 | 1009.4 |
| 20260505202533 | 50 | 332 | 0.0 | 2.6 | 0.00 | 0.00 | 0.00 | 59 | 1009.4 |
| 20260505202025 | 50 | 13 | 0.0 | 2.6 | 0.00 | 0.00 | 0.00 | 59 | 1009.3 |
| 20260505201504 | 50 | 30 | 0.0 | 1.7 | 0.00 | 0.00 | 0.00 | 60 | 1009.3 |
| 20260505201004 | 50 | 355 | 0.0 | 0.9 | 0.00 | 0.00 | 0.00 | 60 | 1009.3 |
| 20260505200710 | 51 | 302 | 0.0 | 0.9 | 0.00 | 0.00 | 0.00 | 60 | 1009.3 |
| 20260505195948 | 51 | 311 | 0.0 | 0.9 | 0.00 | 0.00 | 0.00 | 59 | 1009.2 |
| 20260505195710 | 51 | 340 | 0.0 | 0.9 | 0.00 | 0.00 | 0.00 | 59 | 1009.2 |
| 20260505194940 | 51 | 0 | 0.0 | 0.0 | 0.00 | 0.00 | 0.00 | 59 | 1009.2 |
| 20260505194655 | 51 | 163 | 0.0 | 1.7 | 0.00 | 0.00 | 0.00 | 59 | 1009.1 |
| 20260505193847 | 51 | 5 | 0.0 | 1.7 | 0.00 | 0.00 | 0.00 | 60 | 1009.0 |
| 20260505193341 | 51 | 165 | 0.0 | 0.9 | 0.00 | 0.00 | 0.00 | 59 | 1009.0 |
| 20260505192824 | 51 | 135 | 0.0 | 0.9 | 0.00 | 0.00 | 0.00 | 59 | 1008.9 |
| 20260505192320 | 52 | 0 | 0.0 | 0.0 | 0.00 | 0.00 | 0.00 | 59 | 1008.9 |
| 20260505191820 | 52 | 225 | 0.0 | 0.0 | 0.00 | 0.00 | 0.00 | 60 | 1008.9 |
| 20260505191315 | 52 | 139 | 0.0 | 0.9 | 0.00 | 0.00 | 0.00 | 60 | 1008.8 |
| 20260505190809 | 52 | 324 | 0.0 | 0.9 | 0.00 | 0.00 | 0.00 | 60 | 1008.9 |
| 20260505190308 | 52 | 355 | 0.0 | 0.9 | 0.00 | 0.00 | 0.00 | 59 | 1008.8 |
| 20260505185954 | 53 | 0 | 0.0 | 0.9 | 0.00 | 0.00 | 0.00 | 59 | 1008.6 |
| 20260505185840 | 52 | 248 | 0.0 | 0.9 | 0.00 | 0.00 | 0.00 | 59 | 1008.8 |
| 20260505184748 | 53 | 350 | 0.0 | 3.5 | 0.00 | 0.00 | 0.00 | 58 | 1008.6 |
| 20260505184248 | 53 | 171 | 0.0 | 3.5 | 0.00 | 0.00 | 0.00 | 59 | 1008.7 |
| 20260505183747 | 53 | 15 | 0.0 | 2.6 | 0.00 | 0.00 | 0.00 | 59 | 1008.6 |
| 20260505183250 | 53 | 178 | 0.0 | 2.6 | 0.00 | 0.00 | 0.00 | 59 | 1008.7 |
| 20260505183017 | 53 | 332 | 0.0 | 0.9 | 0.00 | 0.00 | 0.00 | 59 | 1008.7 |
| 20260505182249 | 53 | 164 | 0.0 | 0.9 | 0.00 | 0.00 | 0.00 | 59 | 1008.6 |
| 20260505181749 | 54 | 275 | 0.0 | 1.7 | 0.00 | 0.00 | 0.00 | 59 | 1008.6 |
| 20260505181248 | 54 | 309 | 0.0 | 2.6 | 0.00 | 0.00 | 0.00 | 60 | 1008.6 |
| 20260505180747 | 54 | 308 | 0.0 | 4.3 | 0.00 | 0.00 | 0.00 | 60 | 1008.7 |
| 20260505180248 | 54 | 348 | 0.0 | 4.3 | 0.00 | 0.00 | 0.00 | 61 | 1008.7 |
| 20260505175743 | 55 | 162 | 0.0 | 0.9 | 0.00 | 0.00 | 0.00 | 61 | 1008.7 |
| 20260505175456 | 55 | 5 | 0.0 | 1.7 | 0.00 | 0.00 | 0.00 | 60 | 1008.8 |
| 20260505174727 | 55 | 30 | 0.0 | 1.7 | 0.00 | 0.00 | 0.00 | 60 | 1008.9 |
| 20260505174227 | 55 | 134 | 0.0 | 1.7 | 0.00 | 0.00 | 0.00 | 60 | 1008.7 |
| 20260505173720 | 55 | 239 | 0.0 | 1.7 | 0.00 | 0.00 | 0.00 | 61 | 1008.8 |
| 20260505173216 | 55 | 17 | 0.0 | 5.2 | 0.00 | 0.00 | 0.00 | 61 | 1008.7 |
| 20260505172709 | 55 | 339 | 0.0 | 5.2 | 0.00 | 0.00 | 0.00 | 61 | 1008.7 |
| 20260505172208 | 56 | 10 | 0.0 | 3.5 | 0.00 | 0.00 | 0.00 | 60 | 1008.7 |
| 20260505171707 | 56 | 0 | 0.0 | 3.5 | 0.00 | 0.00 | 0.00 | 60 | 1008.8 |
| 20260505171207 | 56 | 188 | 0.0 | 0.9 | 0.00 | 0.00 | 0.00 | 60 | 1008.7 |
| 20260505170704 | 56 | 331 | 0.0 | 2.6 | 0.00 | 0.00 | 0.00 | 60 | 1008.7 |
| 20260505170139 | 56 | 96 | 0.0 | 2.6 | 0.00 | 0.00 | 0.00 | 60 | 1008.7 |
| 20260505165640 | 56 | 307 | 0.0 | 1.7 | 0.00 | 0.00 | 0.00 | 62 | 1008.6 |
| 20260505165133 | 56 | 204 | 0.0 | 1.7 | 0.00 | 0.00 | 0.00 | 62 | 1008.6 |
| 20260505164632 | 56 | 330 | 0.0 | 0.9 | 0.00 | 0.00 | 0.00 | 62 | 1008.7 |
| 20260505164351 | 56 | 326 | 0.0 | 0.9 | 0.00 | 0.00 | 0.00 | 62 | 1008.8 |
| 20260505163633 | 57 | 303 | 0.0 | 0.9 | 0.00 | 0.00 | 0.00 | 62 | 1008.7 |
| 20260505163355 | 57 | 323 | 0.0 | 0.9 | 0.00 | 0.00 | 0.00 | 61 | 1008.6 |
| 20260505162848 | 57 | 311 | 0.0 | 0.9 | 0.00 | 0.00 | 0.00 | 62 | 1008.7 |
| 20260505162117 | 58 | 355 | 0.0 | 0.9 | 0.00 | 0.00 | 0.00 | 61 | 1008.7 |
| 20260505161607 | 58 | 288 | 0.0 | 1.7 | 0.00 | 0.00 | 0.00 | 62 | 1008.7 |
| 20260505161104 | 58 | 5 | 0.0 | 0.0 | 0.00 | 0.00 | 0.00 | 62 | 1008.7 |
| 20260505160603 | 58 | 233 | 0.0 | 1.7 | 0.00 | 0.00 | 0.00 | 62 | 1008.7 |
| 20260505153046 | 58 | 273 | 0.0 | 0.9 | 0.00 | 0.00 | 0.00 | 62 | 1008.8 |
| 20260505152547 | 58 | 307 | 0.0 | 0.9 | 0.00 | 0.00 | 0.00 | 62 | 1008.9 |
| 20260505152043 | 58 | 161 | 0.0 | 1.7 | 0.00 | 0.00 | 0.00 | 62 | 1009.0 |
| 20260505151544 | 58 | 307 | 0.0 | 1.7 | 0.00 | 0.00 | 0.00 | 62 | 1008.9 |
| 20260505151044 | 58 | 5 | 0.0 | 0.9 | 0.00 | 0.00 | 0.00 | 62 | 1008.9 |
| 20260505150543 | 58 | 229 | 0.0 | 0.9 | 0.00 | 0.00 | 0.00 | 62 | 1008.7 |
| 20260505140513 | 59 | 355 | 0.0 | 1.7 | 0.00 | 0.00 | 0.00 | 61 | 1009.1 |
| 20260505130304 | 58 | 296 | 0.0 | 3.5 | 0.00 | 0.00 | 0.00 | 61 | 1009.5 |
| 20260505124745 | 59 | 348 | 0.0 | 3.5 | 0.00 | 0.00 | 0.00 | 61 | 1009.6 |
| 20260505124450 | 59 | 273 | 0.0 | 1.7 | 0.00 | 0.00 | 0.00 | 62 | 1009.5 |
| 20260505123722 | 58 | 213 | 0.0 | 2.6 | 0.00 | 0.00 | 0.00 | 62 | 1009.5 |
| 20260505123224 | 59 | 304 | 0.0 | 2.6 | 0.00 | 0.00 | 0.00 | 61 | 1009.6 |
| 20260505122714 | 59 | 323 | 0.0 | 2.6 | 0.00 | 0.00 | 0.00 | 61 | 1009.6 |
| 20260505122203 | 58 | 284 | 0.0 | 2.6 | 0.00 | 0.00 | 0.00 | 62 | 1009.6 |
| 20260505121659 | 58 | 350 | 0.0 | 2.6 | 0.00 | 0.00 | 0.00 | 61 | 1009.6 |
| 20260505121159 | 58 | 0 | 0.0 | 2.6 | 0.00 | 0.00 | 0.00 | 61 | 1009.7 |
| 20260505120700 | 58 | 244 | 0.0 | 3.5 | 0.00 | 0.00 | 0.00 | 62 | 1009.8 |
| 20260505120151 | 58 | 326 | 0.0 | 4.3 | 0.00 | 0.00 | 0.00 | 62 | 1009.8 |
| 20260505115651 | 58 | 224 | 0.0 | 4.3 | 0.00 | 0.00 | 0.00 | 62 | 1009.9 |
| 20260505115152 | 58 | 132 | 0.0 | 2.6 | 0.00 | 0.00 | 0.00 | 62 | 1009.7 |
| 20260505114653 | 58 | 282 | 0.0 | 2.6 | 0.00 | 0.00 | 0.00 | 62 | 1009.8 |
| 20260505114148 | 58 | 319 | 0.0 | 0.9 | 0.00 | 0.00 | 0.00 | 62 | 1009.8 |
| 20260505113648 | 58 | 13 | 0.0 | 1.7 | 0.00 | 0.00 | 0.00 | 62 | 1009.9 |
| 20260505113147 | 58 | 146 | 0.0 | 9.6 | 0.00 | 0.00 | 0.00 | 62 | 1009.8 |
| 20260505112647 | 58 | 44 | 0.0 | 9.6 | 0.00 | 0.00 | 0.00 | 62 | 1009.8 |
| 20260505112144 | 58 | 263 | 0.0 | 4.3 | 0.00 | 0.00 | 0.00 | 61 | 1009.8 |
| 20260505111644 | 59 | 349 | 0.0 | 3.5 | 0.00 | 0.00 | 0.00 | 62 | 1009.8 |
| 20260505111137 | 58 | 300 | 0.0 | 0.9 | 0.00 | 0.00 | 0.00 | 62 | 1009.9 |
| 20260505110633 | 58 | 241 | 0.0 | 0.9 | 0.00 | 0.00 | 0.00 | 62 | 1010.0 |
| 20260505110112 | 58 | 332 | 0.0 | 0.9 | 0.00 | 0.00 | 0.00 | 62 | 1010.1 |
| 20260505102037 | 57 | 276 | 0.0 | 3.5 | 0.00 | 0.00 | 0.00 | 62 | 1010.6 |
| 20260505101759 | 57 | 330 | 0.0 | 1.7 | 0.00 | 0.00 | 0.00 | 62 | 1010.4 |
| 20260505101032 | 56 | 288 | 0.0 | 1.7 | 0.00 | 0.00 | 0.00 | 62 | 1010.4 |
| 20260505100756 | 56 | 235 | 0.0 | 1.7 | 0.00 | 0.00 | 0.00 | 62 | 1010.4 |
| 20260505100027 | 56 | 118 | 0.0 | 2.6 | 0.00 | 0.00 | 0.00 | 62 | 1010.3 |
| 20260505095527 | 56 | 319 | 0.0 | 2.6 | 0.00 | 0.00 | 0.00 | 62 | 1010.4 |
| 20260505095023 | 56 | 355 | 0.0 | 0.9 | 0.00 | 0.00 | 0.00 | 63 | 1010.3 |
| 20260505094510 | 56 | 266 | 0.0 | 2.6 | 0.00 | 0.00 | 0.00 | 62 | 1010.3 |
| 20260505094013 | 55 | 311 | 0.0 | 0.9 | 0.00 | 0.00 | 0.00 | 61 | 1010.4 |
| 20260505093511 | 55 | 317 | 0.0 | 0.9 | 0.00 | 0.00 | 0.00 | 62 | 1010.5 |
| 20260505093012 | 55 | 5 | 0.0 | 0.9 | 0.00 | 0.00 | 0.00 | 61 | 1010.5 |
| 20260505092502 | 55 | 214 | 0.0 | 0.9 | 0.00 | 0.00 | 0.00 | 59 | 1010.5 |
| 20260505091956 | 54 | 255 | 0.0 | 0.9 | 0.00 | 0.00 | 0.00 | 60 | 1010.6 |
| 20260505091456 | 54 | 5 | 0.0 | 1.7 | 0.00 | 0.00 | 0.00 | 62 | 1010.4 |
| 20260505090951 | 54 | 190 | 0.0 | 1.7 | 0.00 | 0.00 | 0.00 | 61 | 1010.4 |
| 20260505090718 | 54 | 314 | 0.0 | 2.6 | 0.00 | 0.00 | 0.00 | 61 | 1010.3 |
| 20260505085948 | 54 | 319 | 0.0 | 2.6 | 0.00 | 0.00 | 0.00 | 62 | 1010.3 |
| 20260505085439 | 54 | 28 | 0.0 | 2.6 | 0.00 | 0.00 | 0.00 | 61 | 1010.3 |
| 20260505084940 | 54 | 284 | 0.0 | 2.6 | 0.00 | 0.00 | 0.00 | 59 | 1010.3 |
| 20260505084440 | 53 | 36 | 0.0 | 2.6 | 0.00 | 0.00 | 0.00 | 57 | 1010.1 |
| 20260505083927 | 53 | 22 | 0.0 | 2.6 | 0.00 | 0.00 | 0.00 | 57 | 1010.2 |
| 20260505083427 | 53 | 261 | 0.0 | 1.7 | 0.00 | 0.00 | 0.00 | 53 | 1010.2 |
| 20260505083147 | 53 | 336 | 0.0 | 5.2 | 0.00 | 0.00 | 0.00 | 55 | 1010.3 |
| 20260505082426 | 53 | 302 | 0.0 | 5.2 | 0.00 | 0.00 | 0.00 | 55 | 1010.3 |
| 20260505081929 | 53 | 350 | 0.0 | 2.6 | 0.00 | 0.00 | 0.00 | 52 | 1010.3 |
| 20260505081419 | 53 | 208 | 0.0 | 2.6 | 0.00 | 0.00 | 0.00 | 54 | 1010.3 |
| 20260505081140 | 53 | 271 | 0.0 | 0.9 | 0.00 | 0.00 | 0.00 | 51 | 1010.4 |
| 20260505080403 | 53 | 182 | 0.0 | 0.9 | 0.00 | 0.00 | 0.00 | 47 | 1010.5 |
| 20260505075905 | 52 | 19 | 0.0 | 2.6 | 0.00 | 0.00 | 0.00 | 46 | 1010.5 |
| 20260505075355 | 52 | 329 | 0.0 | 2.6 | 0.00 | 0.00 | 0.00 | 49 | 1010.5 |
| 20260505074847 | 52 | 300 | 0.0 | 1.7 | 0.00 | 0.00 | 0.00 | 50 | 1010.5 |
| 20260505074347 | 52 | 275 | 0.0 | 0.0 | 0.00 | 0.00 | 0.00 | 47 | 1010.6 |
| 20260505073843 | 52 | 296 | 0.0 | 0.0 | 0.00 | 0.00 | 0.00 | 45 | 1010.6 |
| 20260505073339 | 52 | 271 | 0.0 | 0.9 | 0.00 | 0.00 | 0.00 | 43 | 1010.6 |
| 20260505073058 | 52 | 5 | 0.0 | 1.7 | 0.00 | 0.00 | 0.00 | 46 | 1010.7 |
| 20260505072340 | 52 | 344 | 0.0 | 1.7 | 0.00 | 0.00 | 0.00 | 44 | 1010.8 |
| 20260505071841 | 51 | 348 | 0.0 | 1.7 | 0.00 | 0.00 | 0.00 | 36 | 1010.8 |
| 20260505071600 | 51 | 172 | 0.0 | 0.9 | 0.00 | 0.00 | 0.00 | 22 | 1010.7 |
| 20260505070835 | 51 | 355 | 0.0 | 0.9 | 0.00 | 0.00 | 0.00 | 17 | 1010.7 |
| 20260505070534 | 51 | 5 | 0.0 | 0.9 | 0.00 | 0.00 | 0.00 | 14 | 1010.9 |
| 20260505070422 | 51 | 350 | 0.0 | 0.9 | 0.00 | 0.00 | 0.00 | 12 | 1010.7 |
| 20260505065537 | 51 | 355 | 0.0 | 0.0 | 0.00 | 0.00 | 0.00 | 7 | 1011.0 |
| 20260505064816 | 51 | 355 | 0.0 | 1.7 | 0.00 | 0.00 | 0.00 | 4 | 1011.1 |
| 20260505064512 | 51 | 355 | 0.0 | 1.7 | 0.00 | 0.00 | 0.00 | 3 | 1011.1 |
| 20260505063731 | 51 | 340 | 0.0 | 0.0 | 0.00 | 0.00 | 0.00 | 1 | 1011.0 |
| 20260505063231 | 51 | 323 | 0.0 | 0.9 | 0.00 | 0.00 | 0.00 | 100 | 1011.1 |
| 20260505062728 | 50 | 332 | 0.0 | 0.9 | 0.00 | 0.00 | 0.00 | 100 | 1011.0 |
| 20260505062207 | 50 | 188 | 0.0 | 0.9 | 0.00 | 0.00 | 0.00 | 100 | 1011.0 |
| 20260505061707 | 51 | 329 | 0.0 | 0.0 | 0.00 | 0.00 | 0.00 | 100 | 1010.9 |
| 20260505061155 | 50 | 290 | 0.0 | 0.0 | 0.00 | 0.00 | 0.00 | 100 | 1010.9 |
| 20260505060911 | 50 | 290 | 0.0 | 0.0 | 0.00 | 0.00 | 0.00 | 100 | 1010.8 |
| 20260505060127 | 50 | 90 | 0.0 | 0.9 | 0.00 | 0.00 | 0.00 | 100 | 1010.9 |
| 20260505055852 | 50 | 341 | 0.0 | 0.9 | 0.00 | 0.00 | 0.00 | 100 | 1010.8 |